Location: Barcelona
(41.3830°N, 2.1830°E)
Time: 08:59:43
(UTC+01:00)

ISS - Pass Details

Date: 16 November 2017
Orbit: 402 x 407 km, 51.6° (Epoch: 21 November)

Event Time Altitude Azimuth Distance (km) Brightness Sun altitude
Exits shadow 05:38:09 38° 56° (NE) 629 -2.6 -23.0°
Drops below altitude 10° 05:40:45 10° 102° (ESE) 1,450 0.1 -22.5°
Sets 05:42:54 0° 110° (ESE) 2,306 1.4 -22.1°
